Location: General Nathan Twining Observatory
(34.5931°N, 106.8201°W)
Time: 17:15:55
(UTC-06:00)

ADEOS II - Pass Details

Date: 20 June 2018
Orbit: 800 x 801 km, 98.4° (Epoch: 17 July)

Event Time Altitude Azimuth Distance (km) Brightness Sun altitude
Rises 04:58:39 0° 1° (N) 3,315 5.9 -10.4°
Reaches altitude 10° 05:01:10 10° 352° (N) 2,380 5.0 -10.0°
Maximum altitude 05:05:50 33° 290° (WNW) 1,314 3.0 -9.2°
Enters shadow 05:10:27 10° 227° (SW) 2,359 3.9 -8.5°
